DW4360 Weather Reports


time (UTC)temp
F
wind
direction
speed
knots
gust
knots
rain 1hr
in
rain 24hr
in
rain mn
in
humidity
%
barometer
mb
20260902232021 60 253 5.2 0.0 0.00 0.00 0.23 92 1005.9
20260902231020 60 253 0.0 0.0 0.00 0.00 0.23 92 1005.8
20260902230020 60 234 0.0 0.0 0.00 0.00 0.22 92 1005.7
20260902225018 60 223 2.6 0.0 0.00 0.00 0.21 91 1005.6
20260902223017 60 221 0.9 0.0 0.00 0.00 0.21 91 1005.6
20260902222016 60 242 0.0 0.0 0.00 0.00 0.21 91 1005.4
20260902221015 60 229 2.6 0.0 0.00 0.00 0.21 91 1005.4
20260902220014 60 213 0.0 0.0 0.00 0.00 0.21 92 1005.5
20260902215012 60 229 0.0 0.0 0.00 0.00 0.21 93 1005.3
20260902214011 60 229 1.7 0.0 0.00 0.00 0.21 92 1005.3
20260902212010 60 174 0.0 0.0 0.00 0.00 0.20 92 1005.4
20260902211009 59 186 0.0 0.0 0.00 0.00 0.20 92 1005.5
20260902210007 60 174 5.2 0.0 0.00 0.00 0.20 92 1005.4
20260902205006 60 193 0.0 0.0 0.00 0.00 0.20 92 1005.3
20260902204006 60 192 0.0 0.0 0.00 0.00 0.20 92 1005.1
20260902202003 60 167 0.0 0.0 0.00 0.00 0.20 92 1005.0
20260902201003 60 187 2.6 0.0 0.00 0.00 0.20 92 1005.0
20260902200001 60 183 0.0 0.0 0.00 0.00 0.18 92 1005.1
20260902195000 60 183 0.0 0.0 0.00 0.00 0.17 92 1005.3
20260902193959 60 191 0.0 0.0 0.00 0.00 0.15 91 1005.4
20260902192959 60 170 0.0 0.0 0.00 0.00 0.12 91 1005.5
20260902191957 60 169 0.0 0.0 0.00 0.00 0.11 90 1005.6
20260902190956 60 169 0.0 0.0 0.00 0.00 0.09 90 1005.5
20260902185955 60 169 0.0 0.0 0.00 0.00 0.08 90 1005.4
20260902184954 60 180 0.0 0.0 0.00 0.00 0.07 90 1005.5
20260902183953 60 178 0.0 0.0 0.00 0.00 0.06 89 1005.6
20260902182952 60 178 0.0 0.0 0.00 0.00 0.06 88 1005.9
20260902181951 60 215 0.0 0.0 0.00 0.00 0.05 88 1006.1
20260902174948 62 258 0.0 0.0 0.00 0.00 0.03 83 1006.3
20260902173947 63 258 0.0 0.0 0.00 0.00 0.02 80 1006.0
20260902172947 64 197 0.0 0.0 0.00 0.00 0.00 78 1006.0
20260902171945 64 197 0.0 0.0 0.00 0.00 0.00 76 1005.7
20260902170944 64 197 0.0 0.0 0.00 0.00 0.00 72 1005.6
20260902165943 65 197 0.0 0.0 0.00 0.00 0.00 71 1005.5
20260902164942 65 209 0.0 0.0 0.00 0.00 0.00 70 1005.5
20260902163941 65 209 0.0 0.0 0.00 0.00 0.00 68 1005.4
20260902162940 64 207 0.0 0.0 0.00 0.00 0.00 69 1005.3
20260902160938 64 163 0.0 0.0 0.00 0.00 0.00 72 1005.4
20260902155937 64 163 0.0 0.0 0.00 0.00 0.00 74 1005.6
20260902154936 63 163 0.0 0.0 0.00 0.00 0.00 74 1005.6
20260902153935 63 163 0.0 0.0 0.00 0.00 0.00 74 1005.7
20260902152934 63 161 0.0 0.0 0.00 0.00 0.00 73 1005.8
20260902145931 62 158 0.0 0.0 0.00 0.00 0.00 74 1006.1
20260902143929 62 167 0.0 0.0 0.00 0.00 0.00 74 1006.3
20260902142928 62 167 0.0 0.0 0.00 0.00 0.00 75 1006.4
20260902140926 62 201 0.0 0.0 0.00 0.00 0.00 74 1006.7
20260902134924 62 201 0.0 0.0 0.00 0.00 0.00 75 1006.9
20260902133923 62 201 0.0 0.0 0.00 0.00 0.00 75 1007.0
20260902132922 61 201 0.0 0.0 0.00 0.00 0.00 75 1007.1
20260902130920 61 201 0.0 0.0 0.00 0.00 0.00 76 1007.4
20260902124918 61 201 0.0 0.0 0.00 0.00 0.00 76 1007.7
20260902123917 61 201 0.0 0.0 0.00 0.00 0.00 76 1007.8
20260902122915 61 201 0.0 0.0 0.00 0.00 0.00 76 1007.9
20260902121915 61 201 0.0 0.0 0.00 0.00 0.00 76 1008.1
20260902120913 61 201 0.0 0.0 0.00 0.00 0.00 76 1008.2
20260902114912 61 201 0.0 0.0 0.00 0.00 0.00 77 1008.5
20260902111909 61 201 0.0 0.0 0.00 0.00 0.00 78 1008.8
20260902110907 61 201 0.0 0.0 0.00 0.00 0.00 77 1008.8
20260902105907 61 201 0.0 0.0 0.00 0.00 0.00 77 1008.8
20260902104905 61 201 0.0 0.0 0.00 0.00 0.00 77 1009.0
20260902103904 61 201 0.0 0.0 0.00 0.00 0.00 77 1009.0
20260902102903 61 201 0.0 0.0 0.00 0.00 0.00 77 1009.0
20260902101902 61 201 1.7 0.0 0.00 0.00 0.00 77 1009.1
20260902100901 61 201 0.0 0.0 0.00 0.00 0.00 77 1009.1
20260902095900 61 202 0.0 0.0 0.00 0.00 0.00 77 1009.2
20260902094859 61 189 0.0 0.0 0.00 0.00 0.00 77 1009.2
20260902092857 61 186 0.0 0.0 0.00 0.00 0.00 78 1009.5
20260902091856 61 194 1.7 0.0 0.00 0.00 0.00 79 1009.5
20260902090856 61 194 0.0 0.0 0.00 0.00 0.00 79 1009.7
20260902085855 61 225 0.0 0.0 0.00 0.00 0.00 79 1009.7
20260902084853 62 225 0.0 0.0 0.00 0.00 0.00 79 1009.8
20260902083852 62 225 0.0 0.0 0.00 0.00 0.00 79 1009.8
20260902082851 62 225 0.0 0.0 0.00 0.00 0.00 79 1009.8
20260902081850 62 227 0.0 0.0 0.00 0.00 0.00 79 1009.8
20260902080849 62 227 0.0 0.0 0.00 0.00 0.00 78 1009.7
20260902075848 62 215 0.0 0.0 0.00 0.00 0.00 78 1009.6
20260902073846 63 215 2.6 0.0 0.00 0.00 0.00 77 1009.9
20260902072845 63 219 0.0 0.0 0.00 0.00 0.00 76 1010.0
20260902071844 63 273 2.6 0.0 0.00 0.00 0.00 75 1010.0
20260902070844 63 214 0.0 0.0 0.00 0.00 0.00 75 1010.2
20260902065842 63 213 0.0 0.0 0.00 0.00 0.00 75 1010.2
20260902064841 63 213 0.0 0.0 0.00 0.00 0.00 75 1010.3
20260902063840 63 208 0.0 0.0 0.00 0.00 0.00 74 1010.3
20260902062839 63 194 0.0 0.0 0.00 0.00 0.00 73 1010.3
20260902061838 63 190 0.0 0.0 0.00 0.00 0.00 73 1010.1
20260902060837 64 209 0.0 0.0 0.00 0.00 0.00 73 1010.3
20260902054835 64 177 0.0 0.0 0.00 0.00 0.00 73 1010.5
20260902053834 64 212 0.0 0.0 0.00 0.00 0.00 73 1010.5
20260902052833 64 209 0.0 0.0 0.00 0.00 0.00 73 1010.5
20260902051832 64 210 0.0 0.0 0.00 0.00 0.00 73 1010.6
20260902050832 64 236 0.0 0.0 0.00 0.00 0.00 73 1010.5
20260902044829 64 238 3.5 0.0 0.00 0.00 0.00 72 1010.6
20260902043828 64 256 0.0 0.0 0.00 0.00 0.00 72 1010.6
20260902042827 65 216 0.0 0.0 0.00 0.00 0.00 72 1010.4
20260902041826 65 253 0.0 0.0 0.00 0.00 0.00 71 1010.4
20260902035824 65 207 0.0 0.0 0.00 0.00 0.00 71 1010.4
20260902034823 65 199 0.0 0.0 0.00 0.00 0.00 70 1010.4
20260902033822 65 245 0.0 0.0 0.00 0.00 0.00 70 1010.3
20260902032821 66 232 1.7 0.0 0.00 0.00 0.00 69 1010.2
20260902031820 66 248 0.0 0.0 0.00 0.00 0.00 69 1010.2
20260902030819 66 254 0.0 0.0 0.00 0.00 0.00 69 1010.2
20260902025818 66 234 0.0 0.0 0.00 0.00 0.00 68 1010.1
20260902024817 66 201 0.0 0.0 0.00 0.00 0.00 68 1010.1
20260902023815 67 241 0.0 0.0 0.00 0.00 0.00 67 1010.1
20260902022815 67 236 0.0 0.0 0.00 0.00 0.00 67 1009.9
20260902021814 67 248 0.0 0.0 0.00 0.00 0.00 66 1009.9
20260902020813 68 205 0.0 0.0 0.00 0.00 0.00 65 1009.9
20260902015812 68 217 0.0 0.0 0.00 0.00 0.00 66 1009.9
20260902012809 68 246 1.7 0.0 0.00 0.00 0.00 63 1009.7
20260902011807 68 241 1.7 0.0 0.00 0.00 0.00 64 1009.7
20260902010807 68 246 2.6 0.0 0.00 0.00 0.00 63 1009.7
20260902004804 69 233 0.0 0.0 0.00 0.00 0.00 62 1009.5
20260902003803 70 207 3.5 0.0 0.00 0.00 0.00 62 1009.6
20260902002802 71 250 0.0 0.0 0.00 0.00 0.00 60 1009.4
20260902001802 72 256 0.0 0.0 0.00 0.00 0.00 58 1009.5
20260902000801 74 209 0.0 0.0 0.00 0.00 0.00 56 1009.4
20260901235759 74 59 0.0 0.0 0.00 0.00 0.00 55 1009.3